Back to catalog

COSMOS 1375 DEB

AliveLEO
NORAD 17798·DEBRIS·🇷🇺 Russia

Launched Jun 6, 1982 from Plesetsk Cosmodrome

Loading…

Next Passes (next 24 hours)

TLE

FreshSource: Space-Track

Epoch: Sep 14, 2026, 13:46 UTC

1 17798U 82055AQ  26257.57368454 -.00000046  00000-0  41434-4 0  9997
2 17798  65.8341  92.2276 0069649 148.0103 246.0457 13.59315589 29086

Track COSMOS 1375 DEB in real time with AllMySat

Download on the App Store